Temp
59 60 60 61 63 63 63 63 64 64 66 66 68 68 68 66 67 66 65 63 64 62 61 58 55 55 53 52 52 53 51 52 51 52 56 57 55 53 53 51 54 53 53
57 57 58 59 62 63 62 63 64 64 65 67 68 67 67 66 64 65 62 62 60 60 58 57 55 55 53 52 52 52 51 53 55 53 54 55 52 51 51 50 53 58 51
55 55 56 58 59 62 62 62 63 65 66 65 67 64 64 63 62 61 58 54 52 52 52 53 55 54 52 50 49 48 49 53 53 54 53 53 49 50 46 46 48 47 55
54 53 53 54 57 57 63 61 63 64 66 63 63 61 61 59 58 55 53 53 53 51 50 49 49 50 50 50 50 51 53 53 52 52 49 48 46 44 44 42 42 44 45
53 52 52 54 57 60 61 63 62 62 63 62 61 59 58 57 54 52 53 52 49 49 49 49 50 51 51 50 48 48 53 52 52 50 47 45 39 38 40 40 40 41 42
53 53 53 54 55 57 59 60 60 60 59 61 60 58 56 55 50 51 51 48 48 48 48 48 49 50 49 49 51 53 53 52 48 47 44 42 39 40 40 39 37 37 37
53 54 54 54 55 57 60 60 58 58 58 58 57 55 53 51 48 48 50 49 48 46 46 46 46 47 46 47 51 52 52 51 51 48 45 42 40 41 39 37 38 38 37
51 53 53 54 55 58 57 57 56 56 57 56 53 52 49 47 47 47 48 47 45 45 45 45 44 44 47 50 50 49 48 48 48 50 46 43 44 43 40 40 39 39 40
50 51 52 55 54 56 54 53 53 53 51 51 51 49 47 46 45 46 46 46 44 44 46 46 47 48 47 47 49 46 44 45 51 49 48 47 47 47 44 40 41 39 36
49 50 52 53 54 56 53 53 52 51 49 49 47 47 47 45 44 45 46 45 43 43 42 43 47 48 45 46 46 43 42 43 46 45 45 45 44 45 48 40 41 42 37
49 50 52 52 55 54 52 51 49 49 48 47 46 46 45 44 43 43 44 44 42 41 41 42 46 44 43 44 44 44 43 45 46 45 44 44 44 45 44 46 48 43 37
48 49 50 53 53 52 50 49 48 46 46 43 42 41 42 42 43 42 42 43 44 41 40 42 45 43 43 43 44 43 44 47 45 43 42 42 42 42 42 46 48 42 43
46 47 51 51 50 49 48 47 45 44 43 41 40 39 39 42 42 42 41 42 42 40 41 45 43 43 44 48 46 46 47 47 42 41 41 41 42 43 43 44 47 44 48
46 48 48 46 46 46 46 45 44 42 41 39 38 38 39 39 40 41 40 38 40 42 46 45 46 46 47 48 48 49 48 44 42 40 41 41 42 42 42 47 42 44 45
45 44 43 42 41 40 40 42 42 42 42 40 39 40 39 37 38 41 41 41 40 43 44 45 47 47 46 47 47 46 44 45 44 42 41 40 41 41 41 42 40 45 43
41 40 39 39 39 39 37 36 38 39 39 40 41 42 39 41 40 40 40 40 40 43 46 46 45 45 44 44 42 41 42 44 42 42 41 42 39 40 40 42 41 45 43
39 39 38 39 38 37 37 36 33 37 40 40 40 41 41 40 39 40 40 41 44 44 48 47 45 45 43 42 40 41 41 40 41 41 40 41 40 41 41 41 41 45 44
39 40 39 38 38 38 39 38 37 37 36 37 39 40 39 39 39 39 39 41 50 48 48 47 44 44 42 41 41 40 40 40 39 39 40 39 37 39 40 39 39 40 43
40 39 39 39 39 40 40 40 40 39 39 38 40 42 42 40 39 38 38 49 48 47 45 43 43 42 41 41 43 41 39 38 38 37 37 36 36 37 37 37 38 39 42
39 39 39 38 38 39 39 39 39 40 41 41 41 41 40 40 42 48 48 48 47 46 44 45 45 45 45 44 44 42 39 37 37 37 36 35 36 36 37 37 37 37 42
37 38 39 39 37 38 39 39 39 40 42 42 41 41 37 49 48 46 45 47 47 46 45 44 44 43 42 42 41 40 38 36 34 34 36 35 35 35 37 37 37 38 42
39 38 37 38 40 40 40 41 42 43 42 40 40 41 37 49 47 46 46 47 47 46 46 44 42 41 39 38 37 34 32 32 33 34 33 35 35 36 36 37 37 37 38
39 39 41 42 43 41 44 45 44 43 46 48 48 49 48 46 46 45 44 43 43 43 43 42 41 39 38 36 34 32 30 28 30 31 32 35 35 35 35 35 36 36 36
47 47 46 47 48 47 47 48 48 46 49 48 47 46 45 45 44 44 43 43 42 42 40 39 38 36 35 34 33 32 28 28 31 31 34 35 34 35 36 35 35 38 37
52 51 49 48 49 49 49 49 49 49 49 48 48 47 45 44 44 44 43 43 42 41 39 38 35 36 35 34 33 33 32 32 33 32 34 36 36 36 36 35 36 36 37
51 50 49 51 51 50 49 49 48 48 48 48 46 46 46 44 44 44 43 42 42 40 39 37 37 37 36 34 34 33 32 32 32 32 35 35 34 34 35 36 37 37 36
MSLP
1008.10 1007.74 1007.17 1006.59 1005.93 1004.78 1004.50 1004.23 1004.18 1004.03 1003.50 1003.15 1002.89 1002.93 1002.68 1002.89 1002.90 1003.06 1003.46 1003.76 1004.08 1005.00 1005.49 1006.00 1006.90 1007.76 1008.49 1008.95 1009.49 1009.68 1009.30 1010.43 1011.67 1012.73 1013.05 1013.33 1013.71 1014.17 1013.97 1013.95 1013.62 1013.38 1013.49
1008.16 1007.72 1007.38 1006.81 1006.03 1004.85 1004.17 1003.78 1003.59 1003.73 1003.34 1002.83 1002.45 1002.44 1002.46 1002.63 1002.81 1002.85 1003.41 1004.00 1004.99 1005.82 1006.18 1006.62 1007.29 1007.81 1008.63 1009.02 1009.57 1009.76 1010.02 1010.36 1010.63 1012.38 1012.77 1013.24 1014.41 1014.44 1014.40 1014.14 1013.81 1013.41 1013.49
1008.29 1007.75 1007.19 1006.61 1005.85 1005.03 1004.04 1003.29 1003.05 1003.11 1003.04 1002.63 1002.15 1002.45 1002.69 1003.00 1003.39 1003.88 1004.44 1005.37 1006.22 1007.29 1008.62 1009.12 1009.56 1009.60 1009.04 1009.22 1009.39 1009.99 1010.27 1010.88 1010.85 1012.00 1012.92 1013.95 1014.57 1014.82 1014.48 1014.25 1014.22 1014.02 1013.52
1008.03 1007.60 1007.08 1006.37 1005.69 1004.92 1003.80 1003.11 1002.69 1002.61 1002.70 1002.61 1002.28 1002.55 1003.28 1003.81 1004.21 1004.84 1005.46 1006.02 1006.63 1007.11 1008.12 1008.32 1010.06 1012.15 1010.40 1010.52 1010.89 1010.39 1010.27 1011.36 1011.57 1012.39 1013.34 1014.71 1014.76 1015.19 1014.84 1015.24 1015.10 1014.52 1014.56
1007.56 1007.10 1006.61 1006.07 1005.34 1004.53 1003.68 1002.80 1002.72 1002.42 1002.78 1002.69 1002.96 1003.22 1003.77 1004.26 1004.89 1005.29 1005.61 1006.10 1007.03 1007.44 1007.42 1006.56 1009.30 1011.59 1010.97 1011.90 1012.49 1011.13 1011.81 1010.82 1011.66 1013.22 1014.50 1015.35 1015.51 1015.63 1015.99 1016.06 1015.73 1015.35 1015.22
1007.11 1006.54 1006.24 1005.77 1004.98 1004.25 1003.62 1002.82 1002.70 1002.61 1003.01 1003.04 1003.29 1003.64 1003.99 1004.58 1005.28 1005.47 1005.85 1006.81 1007.80 1008.43 1009.37 1009.07 1009.59 1010.98 1012.74 1012.36 1012.83 1012.95 1012.31 1011.60 1012.69 1013.75 1014.95 1015.40 1015.79 1015.81 1016.32 1016.20 1015.89 1015.82 1015.87
1006.23 1005.74 1005.59 1005.21 1004.53 1003.92 1003.49 1002.76 1002.86 1002.98 1003.21 1003.59 1003.69 1004.13 1004.66 1005.38 1006.09 1006.37 1006.65 1007.43 1008.50 1009.19 1009.95 1010.75 1011.61 1011.79 1012.63 1012.90 1013.18 1012.76 1012.92 1013.15 1013.25 1014.35 1014.80 1015.03 1015.35 1015.90 1016.47 1016.04 1015.80 1015.79 1016.20
1005.47 1005.03 1004.97 1004.59 1004.12 1003.59 1003.35 1002.87 1003.04 1003.34 1003.59 1004.04 1004.27 1004.94 1005.47 1006.40 1006.85 1007.55 1007.93 1008.85 1009.69 1010.61 1011.08 1011.29 1012.79 1012.81 1013.43 1013.36 1013.69 1013.73 1013.97 1014.60 1014.52 1014.41 1014.37 1014.67 1015.07 1015.76 1016.18 1016.07 1015.65 1015.73 1015.90
1004.74 1004.47 1004.38 1003.87 1003.57 1003.34 1003.26 1002.95 1003.26 1004.08 1004.85 1004.98 1005.29 1005.87 1006.49 1007.48 1007.99 1008.26 1008.72 1010.02 1010.94 1011.82 1012.98 1012.48 1014.03 1014.16 1013.71 1014.82 1014.14 1014.16 1014.70 1015.04 1014.62 1014.43 1014.23 1014.79 1015.23 1015.46 1015.55 1015.60 1015.69 1015.91 1015.87
1003.99 1003.90 1003.69 1003.44 1003.23 1002.95 1003.20 1003.08 1004.12 1004.87 1005.60 1005.92 1006.40 1007.09 1007.84 1008.60 1009.33 1009.44 1009.82 1010.79 1011.91 1012.81 1013.47 1013.66 1014.24 1014.42 1014.76 1015.28 1014.49 1015.16 1014.92 1015.11 1014.73 1014.25 1014.79 1015.35 1015.42 1015.27 1015.35 1015.96 1015.81 1015.86 1016.05
1003.54 1003.40 1003.12 1002.91 1002.59 1002.71 1003.25 1003.85 1004.69 1005.74 1006.28 1006.78 1007.39 1008.54 1009.25 1009.84 1010.48 1010.66 1011.22 1011.90 1012.58 1013.67 1013.86 1015.12 1015.56 1015.68 1015.39 1014.64 1015.51 1014.76 1014.90 1014.67 1014.71 1014.88 1015.70 1015.81 1015.71 1015.82 1015.80 1015.74 1015.59 1015.94 1016.70
1003.04 1002.68 1002.56 1002.30 1002.39 1003.00 1003.51 1004.69 1005.48 1006.12 1007.05 1007.79 1008.47 1009.82 1010.89 1011.54 1011.85 1012.08 1012.70 1013.30 1013.60 1013.79 1014.94 1016.18 1016.29 1016.10 1015.66 1015.36 1014.77 1015.19 1015.03 1014.67 1015.11 1015.95 1016.27 1016.70 1016.43 1016.39 1016.37 1016.10 1016.19 1016.39 1016.15
1002.34 1002.20 1002.05 1002.36 1003.00 1003.61 1004.15 1005.36 1006.37 1007.17 1007.77 1008.87 1009.85 1010.96 1012.04 1012.72 1013.26 1013.27 1014.02 1014.72 1015.62 1015.86 1015.83 1016.17 1016.11 1016.15 1015.67 1015.29 1015.71 1015.60 1015.49 1015.81 1016.45 1016.69 1016.73 1017.05 1016.89 1016.43 1016.68 1016.81 1016.50 1016.27 1016.32
1001.86 1001.64 1002.21 1003.03 1004.03 1004.87 1005.59 1006.35 1007.14 1008.01 1008.79 1009.76 1010.71 1011.72 1012.81 1013.62 1014.13 1014.54 1015.20 1016.24 1016.22 1016.62 1015.96 1016.60 1016.52 1016.09 1016.04 1016.63 1016.27 1016.60 1016.80 1017.13 1017.02 1017.25 1017.44 1017.34 1017.41 1017.41 1017.35 1016.76 1016.76 1016.68 1016.58
1002.06 1002.61 1003.39 1004.41 1005.25 1006.32 1007.20 1007.98 1008.46 1009.22 1009.58 1010.07 1011.22 1011.75 1012.67 1014.01 1015.04 1015.12 1015.58 1015.93 1016.75 1016.68 1017.17 1017.06 1016.93 1016.75 1016.96 1017.33 1017.82 1018.23 1018.02 1017.74 1017.73 1018.05 1018.16 1018.68 1018.22 1017.77 1017.53 1017.42 1017.34 1017.28 1017.26
1003.07 1004.00 1004.84 1005.72 1006.68 1007.51 1008.33 1009.73 1010.71 1010.76 1011.27 1011.70 1012.08 1012.56 1013.84 1014.36 1015.19 1015.67 1015.67 1016.51 1017.29 1017.32 1017.34 1017.30 1017.54 1017.94 1018.36 1018.49 1019.03 1019.34 1018.93 1018.96 1018.63 1018.67 1019.10 1019.15 1018.50 1018.25 1018.29 1018.00 1018.00 1017.81 1017.78
1004.36 1005.49 1006.25 1006.72 1007.86 1008.65 1009.65 1010.40 1011.67 1013.25 1013.19 1013.65 1013.90 1014.55 1014.96 1015.49 1016.44 1016.84 1016.93 1017.02 1017.12 1017.08 1017.53 1017.94 1018.17 1018.84 1019.38 1019.69 1019.79 1019.59 1020.06 1019.80 1019.61 1019.61 1019.79 1019.41 1019.29 1018.96 1018.62 1018.77 1018.69 1018.27 1018.04
1005.81 1006.67 1007.28 1008.30 1008.97 1009.80 1010.58 1011.44 1012.04 1013.01 1014.20 1015.51 1015.94 1016.10 1016.47 1016.68 1016.95 1017.27 1017.33 1017.35 1017.41 1018.08 1018.31 1018.53 1018.94 1019.94 1020.26 1020.11 1020.16 1021.10 1020.53 1020.18 1020.53 1020.57 1020.34 1020.18 1020.15 1019.90 1019.54 1019.37 1019.13 1018.71 1018.38
1007.07 1007.85 1008.60 1009.42 1010.26 1010.79 1011.61 1012.46 1013.38 1014.12 1015.07 1015.93 1016.52 1017.03 1017.16 1017.20 1017.39 1017.59 1017.64 1017.78 1018.12 1018.52 1018.83 1019.45 1020.18 1020.90 1020.82 1020.92 1020.77 1020.76 1020.96 1021.05 1021.03 1021.38 1021.34 1021.14 1020.85 1020.44 1020.00 1019.99 1019.45 1018.86 1018.54
1008.79 1009.56 1010.03 1010.73 1011.58 1012.17 1012.87 1013.50 1014.43 1015.22 1016.19 1016.91 1017.81 1018.38 1018.56 1018.52 1018.47 1018.27 1018.25 1018.58 1019.07 1019.58 1019.94 1020.60 1021.02 1020.99 1021.16 1021.04 1021.00 1021.32 1021.95 1022.15 1022.08 1022.05 1022.14 1021.75 1021.20 1020.97 1020.83 1020.35 1019.84 1019.52 1019.06
1010.26 1011.13 1011.50 1012.07 1012.87 1013.38 1014.08 1014.87 1015.61 1016.22 1016.73 1017.42 1018.02 1018.36 1018.70 1018.33 1018.68 1018.94 1019.34 1019.73 1020.11 1020.59 1021.22 1021.44 1021.51 1021.73 1021.73 1021.84 1022.35 1022.86 1023.01 1023.24 1023.23 1023.06 1022.40 1022.16 1021.87 1021.61 1021.02 1020.50 1020.33 1020.02 1019.68
1011.54 1012.30 1012.90 1013.18 1014.07 1014.92 1015.50 1016.13 1016.63 1017.09 1017.75 1018.31 1018.67 1018.94 1018.77 1018.96 1019.38 1019.89 1020.32 1020.76 1021.22 1021.61 1021.84 1022.08 1022.23 1022.38 1022.76 1023.03 1023.40 1023.96 1024.32 1024.32 1023.84 1023.50 1023.17 1022.72 1022.35 1021.93 1021.60 1021.25 1020.95 1020.67 1020.35
1012.97 1013.49 1014.22 1014.82 1015.39 1015.91 1016.36 1016.91 1017.34 1017.67 1017.86 1018.14 1018.55 1018.95 1019.44 1020.00 1020.41 1021.00 1021.60 1022.07 1022.41 1022.58 1022.63 1022.65 1022.94 1023.47 1023.87 1024.27 1024.73 1025.03 1024.99 1024.83 1024.53 1023.96 1023.62 1023.29 1022.98 1022.61 1022.29 1021.94 1021.71 1021.38 1021.27
1013.66 1014.33 1014.88 1015.48 1015.96 1016.40 1016.75 1017.10 1017.53 1017.84 1018.15 1018.69 1019.23 1019.83 1020.38 1020.92 1021.49 1022.04 1022.59 1023.01 1023.07 1023.22 1023.59 1024.09 1024.45 1024.67 1024.99 1025.51 1025.61 1025.49 1025.29 1024.84 1024.32 1024.12 1023.88 1023.73 1023.53 1023.17 1022.76 1022.58 1022.38 1021.95 1021.97
1014.06 1014.72 1015.31 1015.80 1016.24 1016.60 1017.04 1017.52 1017.97 1018.46 1019.04 1019.53 1020.03 1020.65 1021.28 1021.80 1022.21 1022.69 1023.22 1023.54 1023.90 1024.24 1024.66 1025.10 1025.54 1025.93 1026.27 1026.22 1025.97 1025.53 1025.13 1024.75 1024.53 1024.43 1024.27 1024.08 1024.08 1023.81 1023.47 1023.33 1023.04 1022.79 1022.76
1014.91 1015.32 1015.79 1016.17 1016.64 1017.13 1017.62 1018.11 1018.74 1019.31 1019.84 1020.41 1020.95 1021.46 1022.02 1022.58 1023.13 1023.57 1023.96 1024.32 1024.72 1025.21 1025.77 1026.22 1026.51 1026.63 1026.63 1026.48 1026.17 1025.82 1025.45 1025.35 1025.14 1024.94 1024.80 1024.78 1024.72 1024.38 1024.14 1023.99 1023.78 1023.67 1023.60
Wind_Speed
11 13 13 13 13 8 7 6 6 6 8 8 7 7 8 6 6 5 4 4 6 5 6 9 8 8 6 5 2 4 5 3 7 2 3 3 3 1 3 4 4 4 5
12 12 13 13 14 11 7 7 6 7 8 8 7 7 5 5 3 5 3 5 6 5 5 10 10 8 9 8 5 6 3 3 7 9 3 3 4 3 2 4 5 5 5
13 12 12 14 12 14 9 8 7 7 10 7 8 2 4 5 9 11 14 16 17 16 14 14 8 2 6 8 8 8 5 1 4 5 4 3 4 4 4 5 5 5 6
12 12 12 12 14 12 11 8 7 6 8 7 2 7 9 9 11 13 14 15 13 13 14 16 14 11 7 9 2 8 8 7 5 7 7 4 3 2 4 4 5 4 6
14 12 12 13 13 13 12 7 8 6 7 2 8 8 7 9 7 12 10 10 11 9 9 20 15 14 19 16 8 9 5 6 8 8 7 3 2 4 4 2 2 3 2
14 13 12 13 12 13 12 6 7 5 5 6 7 9 9 6 9 11 13 10 10 13 12 15 16 21 17 18 11 8 5 10 10 8 5 5 2 3 2 2 1 2 4
13 14 12 12 11 11 11 5 6 6 2 6 8 8 8 9 13 15 18 11 12 13 14 13 10 12 12 11 12 17 17 15 12 10 9 4 4 2 1 4 3 3 2
15 10 12 13 12 11 9 6 3 5 3 7 9 9 11 9 19 19 21 14 13 13 12 14 8 11 5 6 8 10 9 6 6 6 7 6 5 2 3 3 2 2 2
14 12 13 12 10 8 8 2 6 8 7 7 8 11 14 11 16 20 20 15 14 14 9 13 3 3 6 6 8 9 7 4 5 10 10 10 4 4 2 3 5 4 3
11 12 11 10 10 7 3 10 7 9 9 9 12 13 18 14 14 16 18 12 15 11 10 9 8 2 7 5 6 5 7 2 4 6 6 3 3 4 2 2 2 6 3
11 12 12 8 10 4 7 10 12 12 13 14 16 14 15 16 17 23 21 13 11 10 12 6 4 7 8 12 5 4 4 4 8 7 5 4 4 4 5 5 7 7 3
11 9 9 3 5 9 14 12 13 15 15 15 17 15 13 16 24 26 25 19 18 11 10 3 2 7 8 8 7 7 8 9 7 5 5 4 3 5 4 5 6 4 5
8 7 5 9 10 11 15 14 12 13 13 13 13 13 12 12 13 27 25 23 17 9 3 4 8 5 9 14 16 16 13 8 6 5 5 4 2 4 6 3 4 4 5
5 6 13 14 14 12 9 10 11 11 12 13 14 14 12 11 11 10 12 10 13 4 4 4 5 9 13 10 10 10 7 5 5 6 4 4 4 4 4 3 5 4 3
12 14 15 13 16 15 14 9 9 9 9 14 12 13 14 12 8 15 14 11 6 2 0 2 4 7 8 9 9 7 6 7 9 7 7 5 4 4 4 4 3 4 3
16 12 13 13 13 13 15 17 29 25 23 20 18 14 11 20 22 19 20 12 6 6 0 5 7 6 6 6 6 4 6 8 6 7 5 6 5 5 3 4 4 3 3
17 15 12 15 13 14 14 16 18 21 30 27 26 22 20 19 14 12 11 6 6 2 8 8 8 8 6 5 4 6 7 5 6 6 6 7 6 4 5 3 3 3 3
18 22 13 12 13 13 14 15 15 17 16 12 16 15 15 14 11 10 7 1 10 9 8 9 8 6 4 4 6 4 4 6 5 6 7 7 6 4 4 3 3 3 3
15 13 13 13 13 16 15 16 15 16 15 13 13 14 13 14 12 10 9 7 8 8 7 6 6 4 4 4 6 6 5 5 6 5 5 5 5 4 5 4 4 6 5
15 25 19 15 14 15 14 16 16 15 14 13 12 11 5 4 1 8 7 7 8 7 7 7 6 6 6 7 8 8 7 5 5 5 5 5 6 4 4 5 5 4 4
13 14 22 16 14 14 14 14 13 12 12 10 7 3 3 7 8 7 8 9 9 10 9 9 9 9 8 9 9 9 9 6 5 5 5 5 5 5 5 5 5 5 4
14 15 14 15 14 14 13 13 13 12 9 6 3 2 6 9 9 9 9 10 9 9 8 9 9 9 8 8 8 7 6 5 6 6 5 5 6 5 5 5 5 5 5
15 17 17 15 14 13 11 10 9 6 9 10 11 10 9 8 10 10 11 10 9 9 8 9 10 9 8 8 7 5 5 4 4 4 5 5 6 5 5 4 4 5 5
19 18 14 11 10 10 9 9 10 11 12 11 10 9 10 10 10 11 9 9 9 10 10 10 9 11 8 6 4 3 3 4 4 5 7 5 6 7 6 5 4 6 5
14 14 13 12 10 9 11 11 10 10 11 11 11 10 9 8 9 9 9 9 9 10 10 8 7 8 8 7 6 8 9 11 7 6 5 7 7 8 5 4 5 5 7
10 9 7 9 10 9 10 11 11 10 10 9 8 9 9 8 8 8 8 9 9 9 9 7 8 9 7 7 9 12 12 11 8 8 5 5 6 5 5 6 8 6 7
Wind_Direction
337 334 331 325 301 273 261 270 288 291 279 253 256 251 241 236 239 249 250 189 124 123 148 142 130 139 128 123 97 101 117 127 125 92 135 158 112 176 334 339 342 347 322
322 318 313 307 311 278 261 267 282 287 282 272 244 256 265 270 239 211 147 100 103 123 159 150 140 133 144 143 143 100 114 117 122 128 143 98 86 31 46 30 9 10 344
307 306 308 307 303 297 275 252 265 279 284 283 252 152 113 83 73 79 84 80 75 72 51 25 11 342 139 141 112 118 118 85 98 123 93 62 81 35 19 18 4 348 346
295 298 298 296 298 299 279 270 263 274 288 275 249 114 99 104 104 108 113 111 115 123 114 88 62 352 55 6 15 144 133 124 111 90 93 92 70 343 47 42 344 16 2
293 291 292 295 295 292 283 259 279 308 310 308 109 101 121 118 119 127 126 113 117 109 114 120 105 104 49 51 29 5 353 106 93 93 82 82 42 36 39 302 336 312 21
282 281 283 289 290 286 291 257 289 316 302 114 125 132 127 115 131 119 116 112 106 108 104 93 104 101 98 90 90 89 62 99 97 95 107 98 65 61 349 328 292 356 5
278 279 276 284 283 281 292 275 304 320 329 127 123 117 112 102 102 102 105 101 109 109 106 109 106 99 100 103 90 80 73 72 98 128 119 121 96 101 313 343 340 54 151
275 279 288 277 274 277 290 249 304 38 80 125 115 107 97 94 104 109 102 97 94 90 96 82 101 105 130 108 116 109 96 103 113 117 114 114 112 146 159 200 237 58 242
268 269 275 268 275 267 275 199 88 94 89 102 103 106 102 90 95 103 100 94 89 85 82 85 53 128 110 186 121 111 109 106 97 103 96 104 123 254 230 15 24 60 337
263 269 265 263 265 249 217 111 94 99 111 103 84 85 97 90 72 88 97 100 99 91 67 46 44 72 157 140 101 146 108 117 103 64 51 38 241 292 288 173 46 66 37
272 267 269 246 244 146 116 110 110 113 109 99 93 84 81 82 77 85 91 99 101 102 82 44 38 99 98 85 97 88 92 96 81 79 78 57 40 38 64 84 77 85 68
253 256 270 227 118 123 117 112 112 111 106 100 92 88 81 85 89 82 79 81 90 95 94 120 125 80 80 76 64 76 70 73 69 68 61 41 31 45 67 84 94 117 85
240 251 218 113 106 116 116 114 109 109 111 102 99 98 97 96 93 90 88 86 83 107 135 130 96 68 56 64 60 57 55 58 56 57 60 44 13 20 84 115 110 81 88
219 137 106 98 93 88 90 103 113 118 115 114 113 108 108 107 105 103 102 107 105 104 112 42 78 79 69 56 50 47 49 50 67 57 41 23 19 29 69 46 39 6 40
111 98 93 86 88 82 68 71 91 83 106 122 119 121 126 118 118 120 128 124 124 181 144 65 65 67 63 61 54 46 37 43 49 40 37 4 10 52 48 45 39 14 42
94 93 95 97 94 91 92 80 60 76 80 80 85 105 90 109 112 109 109 121 222 157 57 82 76 76 76 73 63 42 44 50 45 44 31 16 10 32 65 28 17 25 30
97 99 99 95 97 102 99 100 99 75 81 80 87 93 100 112 111 109 100 107 161 79 84 90 86 78 69 70 85 68 60 40 46 38 27 22 6 5 41 36 5 13 12
95 97 94 97 102 104 105 106 106 108 106 92 67 88 83 86 88 104 89 321 91 79 97 91 85 85 82 65 69 105 70 49 41 35 26 15 7 359 16 18 2 350 10
96 96 97 97 99 104 107 107 105 105 104 104 99 76 70 55 38 357 313 85 91 83 71 69 76 91 90 88 81 75 77 64 48 36 20 12 351 7 11 20 2 8 15
87 97 100 100 104 103 103 107 108 108 110 109 114 121 107 58 81 90 74 81 78 79 71 72 71 69 74 69 60 54 48 44 43 31 12 9 4 8 1 22 20 13 3
93 95 104 97 99 101 101 102 104 110 111 112 117 103 173 113 90 78 75 75 77 74 74 70 64 62 55 52 53 48 42 29 18 358 24 12 5 0 359 13 23 3 8
97 98 99 102 103 102 105 108 113 116 115 123 155 172 113 89 84 80 77 75 78 79 79 80 73 63 58 54 50 47 34 16 10 13 356 12 11 7 6 6 10 9 5
99 103 104 104 106 114 113 117 121 133 128 111 99 93 86 79 77 74 74 71 70 70 68 68 67 62 56 55 47 42 41 9 337 358 13 15 10 8 2 9 1 20 13
110 115 118 123 121 120 125 121 110 101 99 97 92 87 87 86 88 87 86 86 81 73 68 68 65 63 51 42 32 31 8 353 16 12 21 23 14 4 11 5 2 20 22
105 106 107 112 115 108 107 107 103 97 97 99 101 96 93 90 86 85 86 84 84 83 78 72 64 63 61 50 34 26 19 23 24 11 19 30 15 13 8 10 15 21 30
113 114 106 104 102 99 98 99 98 100 98 95 93 94 98 96 95 96 93 92 90 85 84 81 81 72 57 39 30 25 21 21 14 5 31 40 21 10 22 20 31 30 31